Regional Weather Roundup
Issued by NWS

Home | Current Version | Previous Version | Text Only | Print | Product List | Glossary On
Versions: 1 2 3 4 5 6 7 8 9 10 11 12 13 14 15 16 17 18 19 20 21 22 23 24 25 26 27 28 29 30 31 32 33 34 35 36 37 38 39 40 41 42 43 44 45 46 47 48
000
ASPQ40 PGUM 200912
RWRPQ
WEATHER ROUNDUP FOR THE MARIANAS AND MICRONESIA
NATIONAL WEATHER SERVICE TIYAN GU
700 PM CHST WED AUG 20 2014

GUZ001>004-201000-
MARIANA ISLANDS-

CITY           SKY/WX    TMP DP  RH WIND       PRES   REMARKS
GUAM AIRPORT   CLEAR     81  73  78 NE5       29.83R
ANDERSEN AFB   PTCLDY    79  73  83 NW2       29.84
ROTA AIRPORT   MOCLDY    81  77  89 N2        29.85R
TINIAN AP      MOCLDY    81  75  83 NE3       29.82R
SAIPAN AP      CLEAR     82  75  78 NE6       29.83S

$$

PMZ161-201000-
REPUBLIC OF PALAU-

CITY           SKY/WX    TMP DP  RH WIND       PRES   REMARKS
KOROR AP       MOCLDY    84  79  84 S5        29.83R HX  96
KOROR WSO      CLOUDY    84  73  70 W6        29.82R HX  91

$$

PMZ171>174-201000-
FEDERATED STATES OF MICRONESIA-

CITY           SKY/WX    TMP DP  RH WIND       PRES   REMARKS
YAP AIRPORT    MOCLDY    82  77  83 VRB5      29.82R HX  91
CHUUK AP       MOCLDY    81  77  89 CALM      29.82R
POHNPEI AP     NOT AVBL
POHNPEI WSO    MOCLDY    79  77  94 SE3       29.87R
KOSRAE AP      NOT AVBL

$$

PMZ181-201000-
REPUBLIC OF THE MARSHALL ISLANDS-

CITY           SKY/WX    TMP DP  RH WIND       PRES   REMARKS
KWAJALEIN AP   MOCLDY    81  75  83 S8        29.84R
MAJURO AP      NOT AVBL
MAJURO WSO     MOCLDY    81  77  89 CALM      29.86R

$$



USA.gov is the U.S. government's official web portal to all federal, state and local government web resources and services.